This demonstration page uses our WeatherBlox Daily Observations layout. Learn more.

Hourly Observations for June 19, 2015

Temp ( °F °C ) Dew Point ( °F °C ) Humidity (%) Winds ( mph kmh ) Pressure ( in mb ) Visibility ( mi km ) Precip ( " mm )
12:15 am 00:15 Clear 62 16.5 58 14.2 86 86 E 8 13 30.09 1019 10 16.0934 0 0
12:35 am 00:35 Clear 61 16.3 57 14 86 86 E 6 9 30.09 1019 10 16.0934 0 0
12:55 am 00:55 Clear 60 15.8 57 14 89 89 E 5 7 30.09 1019 10 16.0934 0 0
1:15 am 01:15 Clear 60 15.7 57 13.7 88 88 Calm 30.09 1019 10 16.0934 0 0
1:35 am 01:35 Clear 61 16 57 13.8 87 87 SSE 3 6 30.09 1019 10 16.0934 0 0
1:55 am 01:55 Clear 60 15.5 56 13.6 89 89 SSW 6 9 30.09 1019 10 16.0934 0 0
2:15 am 02:15 Clear 60 15.5 57 13.7 89 89 SSE 5 7 30.06 1018 10 16.0934 0 0
2:35 am 02:35 Clear 59 15 56 13.3 90 90 SE 5 7 30.06 1018 10 16.0934 0 0
2:55 am 02:55 Clear 58 14.4 56 13.2 93 93 ESE 5 7 30.06 1018 10 16.0934 0 0
3:15 am 03:15 Clear 58 14.5 56 13.2 92 92 SE 5 7 30.06 1018 10 16.0934 0 0
3:35 am 03:35 Clear 58 14.5 56 13.4 93 93 SE 6 9 30.06 1018 10 16.0934 0 0
3:55 am 03:55 Partly Cloudy 57 14 55 12.8 93 93 Calm 30.06 1018 7 11.26538 0 0
4:15 am 04:15 Mostly Cloudy 59 15 57 14.1 94 94 Calm 30.06 1018 7 11.26538 0 0
4:35 am 04:35 Cloudy 60 15.6 58 14.7 94 94 SE 5 7 30.03 1017 7 11.26538 0 0
4:55 am 04:55 Cloudy 60 15.3 58 14.3 94 94 S 3 6 30.03 1017 7 11.26538 0 0
5:15 am 05:15 Cloudy 60 15.5 58 14.5 94 94 Calm 30.03 1017 7 11.26538 0 0
5:35 am 05:35 Cloudy 60 15.6 58 14.6 94 94 SE 5 7 30.03 1017 7 11.26538 0 0
5:55 am 05:55 Cloudy with Mist and Fog 60 15.8 59 15 95 95 Calm 30.03 1017 5 8.0467 0 0
6:15 am 06:15 Cloudy with Mist and Fog 61 16 59 15.1 94 94 ESE 5 7 30.03 1017 5 8.0467 0 0
6:35 am 06:35 Cloudy with Mist and Fog 61 16.3 60 15.4 94 94 ESE 3 6 30.03 1017 5 8.0467 0 0
6:55 am 06:55 Cloudy 62 16.6 60 15.5 93 93 Calm 30 1016 7 11.26538 0 0
7:15 am 07:15 Cloudy 62 16.8 60 15.6 93 93 ESE 5 7 30 1016 7 11.26538 0 0
7:35 am 07:35 Cloudy 63 17 61 15.9 93 93 ESE 6 9 30 1016 7 11.26538 0 0
7:55 am 07:55 Cloudy with Mist and Fog 63 17.2 61 16 93 93 SE 7 11 30 1016 4 6.43736 0 0
8:15 am 08:15 Cloudy 64 17.7 61 16.1 90 90 SSE 8 13 30 1016 10 16.0934 0 0
8:35 am 08:35 Cloudy 64 18 61 15.9 88 88 SSE 9 15 30 1016 10 16.0934 0 0
8:55 am 08:55 Cloudy 65 18.2 61 16 87 87 S 9 15 30 1016 10 16.0934 0 0
9:15 am 09:15 Cloudy 65 18.6 62 16.4 87 87 S 10 17 30 1016 10 16.0934 0 0
9:35 am 09:35 Cloudy 66 19 62 16.6 86 86 S 9 15 30 1016 10 16.0934 0 0
9:55 am 09:55 Cloudy 68 20 63 17.3 85 85 SSE 9 15 30 1016 7 11.26538 0 0
10:15 am 10:15 Cloudy 69 20.5 64 17.5 83 83 SSE 13 20 29.97 1015 10 16.0934 0 0
10:35 am 10:35 Cloudy 70 21.1 64 17.8 82 82 SSE 10 17 29.97 1015 10 16.0934 0 0
10:55 am 10:55 Cloudy 71 21.5 64 17.6 79 79 S 13 20 29.97 1015 10 16.0934 0 0
11:15 am 11:15 Cloudy 71 21.9 64 17.6 77 77 S 14 22 29.94 1014 10 16.0934 0 0
11:35 am 11:35 Cloudy 72 22 64 17.6 76 76 S 13 20 29.94 1014 10 16.0934 0 0
11:55 am 11:55 Mostly Cloudy 73 22.9 64 17.8 73 73 S 14 22 29.94 1014 10 16.0934 0 0
12:15 pm 12:15 Mostly Cloudy 74 23.1 64 17.9 73 73 S 13 20 29.94 1014 10 16.0934 0 0
12:35 pm 12:35 Mostly Cloudy 74 23.5 65 18.1 72 72 SSE 13 20 29.91 1013 10 16.0934 0 0
12:55 pm 12:55 Mostly Cloudy 74 23.6 65 18.3 72 72 SSE 12 19 29.88 1012 10 16.0934 0 0
1:15 pm 13:15 Mostly Cloudy 75 24.1 65 18.4 71 71 S 9 15 29.88 1012 10 16.0934 0 0
1:35 pm 13:35 Partly Cloudy 76 24.7 66 18.9 70 70 S 14 22 29.88 1012 10 16.0934 0 0
1:55 pm 13:55 Partly Cloudy 77 25 66 19 69 69 SSE 10 17 29.85 1011 10 16.0934 0 0
2:15 pm 14:15 Partly Cloudy 78 25.5 66 18.8 67 67 SSE 13 20 29.85 1011 10 16.0934 0 0
2:35 pm 14:35 Sunny 79 26 65 18.5 63 63 S 14 22 29.85 1011 10 16.0934 0 0
2:55 pm 14:55 Sunny 79 26.3 66 18.8 63 63 S 17 28 29.83 1010 10 16.0934 0 0
3:15 pm 15:15 Sunny 81 27 66 19 62 62 SSE 16 26 29.8 1009 10 16.0934 0 0
3:35 pm 15:35 Sunny 81 27.3 67 19.7 63 63 SSE 16 26 29.8 1009 10 16.0934 0 0
3:55 pm 15:55 Partly Cloudy 82 27.5 67 19.3 61 61 SSE 14 22 29.77 1008 10 16.0934 0 0
4:15 pm 16:15 Sunny 82 27.6 65 18.6 58 58 SSE 17 28 29.77 1008 10 16.0934 0 0
4:35 pm 16:35 Sunny 82 28 65 18.6 57 57 SSE 16 26 29.77 1008 10 16.0934 0 0
4:55 pm 16:55 Sunny 83 28.2 66 18.7 56 56 SSE 21 33 29.74 1007 10 16.0934 0 0
5:15 pm 17:15 Sunny 83 28.3 66 18.7 56 56 SSE 16 26 29.74 1007 10 16.0934 0 0
5:35 pm 17:35 Sunny 83 28.6 67 19.2 57 57 SSE 21 33 29.74 1007 10 16.0934 0 0
5:55 pm 17:55 Sunny 83 28.5 65 18.5 55 55 S 18 30 29.68 1005 10 16.0934 0 0
6:15 pm 18:15 Sunny 84 28.8 66 18.8 55 55 S 17 28 29.68 1005 10 16.0934 0 0
6:35 pm 18:35 Sunny 83 28.6 65 18.6 55 55 S 21 33 29.68 1005 10 16.0934 0 0
6:55 pm 18:55 undefined 83 28.6 66 19 56 56 SSE 17 28 29.65 1004 10 16.0934 0 0
7:15 pm 19:15 Sunny 83 28.5 66 18.8 56 56 SSE 17 28 29.65 1004 10 16.0934 0 0
7:35 pm 19:35 Sunny 83 28.2 66 19 57 57 SSE 17 28 29.68 1005 10 16.0934 0 0
7:55 pm 19:55 Sunny 82 27.7 67 19.5 61 61 SSE 14 22 29.68 1005 10 16.0934 0 0
8:15 pm 20:15 Sunny 81 27.1 67 19.5 63 63 SSE 13 20 29.68 1005 10 16.0934 0 0
8:35 pm 20:35 Sunny 80 26.6 67 19.5 65 65 SSE 14 22 29.68 1005 10 16.0934 0 0
8:55 pm 20:55 Sunny 79 26 67 19.6 68 68 SSE 13 20 29.68 1005 10 16.0934 0 0
9:15 pm 21:15 Clear 78 25.4 67 19.6 70 70 SSE 13 20 29.65 1004 10 16.0934 0 0
9:35 pm 21:35 Clear 77 24.8 67 19.7 73 73 SE 13 20 29.65 1004 10 16.0934 0 0
9:55 pm 21:55 Clear 76 24.5 68 20 76 76 SSE 13 20 29.65 1004 10 16.0934 0 0
10:15 pm 22:15 Clear 75 24.1 68 19.8 77 77 SSE 14 22 29.71 1006 10 16.0934 0 0
10:35 pm 22:35 Clear 75 24 67 19.7 77 77 SSE 14 22 29.71 1006 10 16.0934 0 0
10:55 pm 22:55 Clear 75 23.8 67 19.7 78 78 SSE 14 22 29.71 1006 10 16.0934 0 0
11:15 pm 23:15 Clear 74 23.6 67 19.7 79 79 SSE 13 20 29.71 1006 10 16.0934 0 0
11:35 pm 23:35 Clear 74 23.6 68 19.8 79 79 SSE 12 19 29.68 1005 10 16.0934 0 0
11:55 pm 23:55 Clear 74 23.6 67 19.7 79 79 SSE 13 20 29.68 1005 10 16.0934 0 0

Powered by AerisWeather